BELINTERSAT-1

Last updated on Sept. 20, 2020, 5:45 a.m. UTC

1 41238U 16001A   20263.75604872  .00000091  00000-0  00000+0 0  9997
2 41238   0.0653 301.9573 0001502 224.9218 155.9363  1.00274746 17223
UTC
Height (km)
Latitude
Longitude
Inclination
Orbital Period
UTC large
Height (km)
Speed (km/s)
/
Latitude / Longitude
Inclination (degrees)
Orbital Period (minutes)
Azimuth
Elevation
Range (km)
Doppler Factor
iOS Compass Heading
iOS Angle

Next 30 passes for location: Hong Kong

Rise time Rise Azimuth (degrees) Set time Set Azimuth (degrees) Duration Max altitude (degrees)

No matching passes for this satellites